Tracking 28920 objects as of 26-May-2024
HD Live streaming from Space Station
objects crossing your sky now

STARLINK-31742

Track STARLINK-31742 now!
10-day predictions


NORAD ID: 59499
Int'l Code: 2024-071R
Perigee: 450.4 km
Apogee: 451.8 km
Inclination: 43.0 °
Period: 93.5 minutes
Semi major axis: 6822 km
RCS: Unknown
Launch date: April 13, 2024
Source: United States (US)
Launch site: AIR FORCE EASTERN TEST RANGE (AFETR)
Your satellite tracking list
Your tracking list is empty




NASA's NSSDC Master Catalog

Two Line Element Set (TLE):
1 59499U 24071R   24147.35229981  .00038665  00000-0  92693-3 0  9997
2 59499  43.0008 106.6797 0001025 252.4384 107.6360 15.40741011  7942
Source of the keplerian elements: AFSPC